FW8063 Weather Reports


Display with metric or nautical units.
time (UTC)temp
F
wind
direction
speed
MPH
gust
MPH
rain 1hr
in
rain 24hr
in
rain mn
in
humidity
%
barometer
mb
20260505163034 55 258 0.0 3.0 0.00 0.00 0.00 87 1016.3
20260505161541 55 298 1.0 5.0 0.00 0.00 0.00 87 1016.2
20260505153030 54 224 1.0 4.0 0.00 0.00 0.00 88 1016.2
20260505151633 54 243 1.0 5.0 0.00 0.00 0.00 88 1016.2
20260505124517 53 242 2.0 5.0 0.00 0.00 0.00 88 1015.2
20260505123014 53 248 4.0 7.0 0.00 0.00 0.00 88 1015.1
20260505121528 53 221 2.0 4.0 0.00 0.00 0.00 88 1015.2
20260505120011 53 203 2.0 5.0 0.00 0.00 0.00 88 1015.0
20260505114510 53 209 2.0 4.0 0.00 0.00 0.00 88 1015.1
20260505113012 53 203 3.0 6.0 0.00 0.00 0.00 89 1014.9
20260505111507 54 175 2.0 4.0 0.00 0.00 0.00 89 1014.8
20260505101601 53 209 2.0 4.0 0.00 0.00 0.00 89 1014.4
20260505100100 53 184 1.0 5.0 0.00 0.00 0.00 89 1014.4
20260505094625 53 177 1.0 4.0 0.00 0.00 0.00 89 1014.3
20260505093059 53 194 2.0 5.0 0.00 0.00 0.00 89 1014.2
20260505091605 53 198 3.0 5.0 0.00 0.00 0.00 89 1014.3
20260505090104 53 213 2.0 6.0 0.00 0.00 0.00 89 1014.2
20260505084556 53 195 3.0 5.0 0.00 0.00 0.00 89 1014.3
20260505083100 52 187 2.0 5.0 0.00 0.00 0.00 88 1014.2
20260505081557 52 207 2.0 4.0 0.00 0.00 0.00 88 1014.0
20260505080051 52 186 2.0 4.0 0.00 0.00 0.00 87 1014.0
20260505074546 52 201 2.0 4.0 0.00 0.00 0.00 87 1013.9
20260505073045 53 201 1.0 4.0 0.00 0.00 0.00 86 1013.9
20260505071548 53 185 2.0 4.0 0.00 0.00 0.00 85 1013.7
20260505070039 53 221 1.0 4.0 0.00 0.00 0.00 84 1013.6
20260505064541 54 221 3.0 5.0 0.00 0.00 0.00 84 1013.4
20260505063039 54 218 2.0 5.0 0.00 0.00 0.00 83 1013.4
20260505061538 54 232 4.0 7.0 0.00 0.00 0.00 83 1013.4
20260505060039 55 248 4.0 9.0 0.00 0.00 0.00 82 1013.4
20260505054541 56 222 5.0 10.0 0.00 0.00 0.00 82 1013.3
20260505053036 56 238 7.0 13.0 0.00 0.00 0.00 81 1013.1
20260505051535 57 231 7.0 11.0 0.00 0.00 0.00 81 1013.1
20260505041533 57 263 8.0 11.0 0.00 0.00 0.00 78 1012.3
20260505040133 58 270 9.0 14.0 0.00 0.00 0.00 76 1011.8
20260505034533 58 263 9.0 14.0 0.00 0.00 0.00 76 1011.7
20260505033038 59 272 11.0 17.0 0.00 0.00 0.00 75 1011.4
20260505031543 60 267 14.0 19.0 0.00 0.00 0.00 73 1011.2
20260505030032 62 275 15.0 19.0 0.00 0.00 0.00 72 1010.9
20260505024545 64 267 10.0 14.0 0.00 0.00 0.00 70 1010.5
20260505023040 65 274 14.0 17.0 0.00 0.00 0.00 68 1010.4
20260505021530 67 277 9.0 15.0 0.00 0.00 0.00 68 1010.4
20260505020029 68 279 10.0 14.0 0.00 0.00 0.00 66 1010.2
20260505014535 69 292 10.0 15.0 0.00 0.00 0.00 65 1010.4
20260505013027 73 292 10.0 13.0 0.00 0.00 0.00 60 1010.3
20260505011525 73 259 7.0 11.0 0.00 0.00 0.00 61 1010.4
20260505010024 73 221 5.0 9.0 0.00 0.00 0.00 61 1010.5
20260505004522 73 164 5.0 9.0 0.00 0.00 0.00 61 1010.7
20260505003019 72 157 5.0 12.0 0.00 0.00 0.00 64 1010.5
20260505001517 71 162 5.0 11.0 0.00 0.00 0.00 65 1010.6
20260505000017 71 163 6.0 10.0 0.00 0.00 0.00 64 1010.8
20260504234513 71 136 5.0 12.0 0.00 0.00 0.00 65 1011.0
20260504233012 70 159 7.0 15.0 0.00 0.00 0.00 64 1011.1
20260504231510 70 130 6.0 11.0 0.00 0.00 0.00 65 1011.1
20260504230009 69 128 5.0 12.0 0.00 0.00 0.00 65 1011.4
20260504224508 70 166 7.0 13.0 0.00 0.00 0.00 65 1011.7
20260504223006 69 217 6.0 12.0 0.00 0.00 0.00 66 1011.9
20260504221504 69 232 5.0 11.0 0.00 0.00 0.00 67 1012.1
20260504220002 68 189 6.0 13.0 0.00 0.00 0.00 66 1012.2
20260504214606 68 130 4.0 11.0 0.00 0.00 0.00 67 1012.4
20260504213058 67 193 5.0 12.0 0.00 0.00 0.00 67 1012.5
20260504211555 67 181 5.0 14.0 0.00 0.00 0.00 69 1012.6
20260504204608 65 160 7.0 11.0 0.00 0.00 0.00 70 1013.1
20260504203113 64 123 4.0 12.0 0.00 0.00 0.00 71 1013.2
20260504201548 64 213 5.0 10.0 0.00 0.00 0.00 71 1013.3
20260504200049 63 221 5.0 12.0 0.00 0.00 0.00 73 1013.4
20260504194548 62 177 6.0 13.0 0.00 0.00 0.00 74 1013.4
20260504193048 62 171 4.0 11.0 0.00 0.00 0.00 76 1013.4
20260504191550 61 181 6.0 12.0 0.00 0.00 0.00 77 1013.5
20260504190050 60 164 6.0 12.0 0.00 0.00 0.00 78 1013.7
20260504184544 60 157 5.0 10.0 0.00 0.00 0.00 78 1013.9
20260504183043 59 198 6.0 10.0 0.00 0.00 0.00 79 1013.7
20260504181542 58 172 6.0 15.0 0.00 0.00 0.00 79 1013.7
20260504180041 58 167 8.0 11.0 0.00 0.00 0.00 80 1013.6
20260504174541 58 190 7.0 10.0 0.00 0.00 0.00 81 1013.7
20260504173046 57 165 5.0 13.0 0.00 0.00 0.00 81 1013.5
20260504171541 57 238 7.0 12.0 0.00 0.00 0.00 81 1013.5
20260504170139 57 251 7.0 12.0 0.00 0.00 0.00 81 1013.6